SL-14 DEB

Satellite information

Favourite Embed

Satellite Type and Status

DEBRISIN ORBIT

Key statistics

Satellite SL-14 DEB at a glance.

Uptime

12380

Days in orbit

Revolutions

≈ 13.4

Per day

Orbit

LEO

Low Earth Orbit

Inclination

82.6

Latest

Satellite identification and parameters

Extended collection of information and parameters for SL-14 DEB.

Object identification

Identified? True

Debris? True

Object name: SL-14 DEB

International designator: 1991-056DP

Object number (NORAD): 47089

Object ID (CCSDS): 47089

Country: COMMONWEALTH OF INDEPENDENT STATES (CIS)

Current information (Y/N): Y

RCS size: SMALL

Orbital parameters

Period: 107.596 minutes

Inclination: 82.602 deg

SMA: 7493.586 km

Apoapsis: 1256.221 km

Periapsis: 974.681 km

RAAN: 341.29 deg

Eccentricy: 0.0187854

Argument of periapsis: 63.799 deg

Mean anomaly: 298.2324 deg

Mean motion: 13.38345537 rev/day

Mean motion (dot): 0.00000064 rev/day2

B* drag term: 0.00008315 1/REarth

Two-line elements (TLE)

Creation date: July 3, 2025, 5:26 p.m.

Reference frame: TEME

Reference center: EARTH

Epoch: July 3, 2025, 3:55 a.m. UTC

TLE line 0: 0 SL-14 DEB

TLE line 1: 1 47089U 91056DP 25184.16365593 .00000064 00000-0 83150-4 0 9998

TLE line 2: 2 47089 82.6020 341.2900 0187854 63.7990 298.2324 13.38345537227692

Live tracking on map

Real-time ground track for satellite SL-14 DEB.

In-orbit conjunctions

A list of the most updated potential collisions computed for object SL-14 DEB.

Target Orbit TCA Probability of collision Miss distance Type
COSMOS 1181 LEO 2025-06-04 06:05:06 0.0001202038 143.0 (m) PAYLOAD
FENGYUN 1C DEB SSO 2025-05-22 11:15:38 0.0001385152 384.0 (m) DEBRIS

Associated space launch

Third generation meteorological satellite

SL-14 DEB was lifted into orbit during the mission ‘Tsiklon-3 | Meteor-3 5’, on board a Tsiklon-3 space rocket.

The launch took place on Aug. 15, 1991, 9:15 a.m. from 32/2.

For more information about the launch, click the button.

Launch to space Tsiklon-3 | Meteor-3 5
Tsiklon-3 | Meteor-3 5

Agency: N/A

Status: Launch Successful

Launch date: Aug. 15, 1991, 9:15 a.m. UTC

Rocket: Tsiklon-3

Launch pad: 32/2

Location: Plesetsk Cosmodrome, Russian Federation

...

Latest news about this satellite

There are no fresh news available about this satellite. Check back as we update our databases every day.


Newsletter sign-up

Weekly statistics, charts and insights to help you stay on top of the space industry.